Evansville, IN

9:49 AM CST on November 21, 2019 (GMT -0600)
Evansville Regional

Weather History for KEVV - October, 2019

Change the Weather History Date:

Wednesday, October 23, 2019

  Actual Average Record
Temperature  
Mean Temperature 54 °F 56 °F  
Max Temperature 69 °F 67 °F 88 °F (1963)
Min Temperature 38 °F 44 °F 26 °F (1952)
Degree Days  
Heating Degree Days 12 10  
Month to date heating degree days 153 167  
Since 1 July heating degree days 153 214  
Cooling Degree Days 0 0  
Month to date cooling degree days 49 28  
Year to date cooling degree days 1640 1394  
Growing Degree Days 4 (Base 50)    
Moisture  
Dew Point 34 °F    
Average Humidity 50    
Maximum Humidity 79    
Minimum Humidity 26    
Precipitation  
Precipitation 0.00 in 0.11 in 2.45 in (1976)
Month to date precipitation 2.76 2.37  
Year to date precipitation 48.84 36.34  
Snow  
Snow 0.00 in 0.00 in 0.00 in (2002)
Month to date snowfall 0.0 0.1  
Since 1 July snowfall 0.0 0.1  
Since 1 September snowfall 0.0 0.1  
Snow Depth 0.00 in    
Sea Level Pressure  
Sea Level Pressure 30.11 in    
Wind  
Wind Speed 7 mph ()    
Max Wind Speed 21 mph    
Max Gust Speed 31 mph    
Visibility 10.0 miles    
Events      
T = Trace of Precipitation, MM = Missing Value Source: Averaged Metar Reports

Daily Weather History Graph

Daily Weather History Graph

Search for Another Location

Airport or City:

Astronomy

Oct. 23, 2019 Rise Set
Actual Time 7:06 AM CDT 6:01 PM CDT
Civil Twilight 6:39 AM CDT 6:28 PM CDT
Nautical Twilight 6:08 AM CDT 6:59 PM CDT
Astronomical Twilight 5:38 AM CDT 7:29 PM CDT
Moon 1:31 AM CDT (10/23) 3:45 PM CDT (10/23)
Length of Visible Light 11h 49m
Length of Day
10h 55m
Waning Crescent, 26% of the Moon is Illuminated
Oct 23
Waning Crescent
Oct 27
New
Nov 4
First Quarter
Nov 12
Full
Nov 19
Last Quarter

Hourly Weather History & Observations

Time (CDT) Temp. Windchill Dew Point Humidity Pressure Visibility Wind Dir Wind Speed Gust Speed Precip Events Conditions
12:54 AM 46.0 °F 43.9 °F 30.0 °F 54% 30.04 in 10.0 mi West 4.6 mph - N/A   Clear
1:54 AM 44.1 °F 42.5 °F 30.9 °F 60% 30.06 in 10.0 mi SW 3.5 mph - N/A   Clear
2:54 AM 41.0 °F 38.0 °F 32.0 °F 70% 30.07 in 10.0 mi WSW 4.6 mph - N/A   Clear
3:54 AM 42.1 °F 38.4 °F 32.0 °F 67% 30.07 in 10.0 mi WSW 5.8 mph - N/A   Clear
4:54 AM 39.9 °F 37.8 °F 33.1 °F 77% 30.08 in 10.0 mi WSW 3.5 mph - N/A   Clear
5:54 AM 39.0 °F 35.7 °F 33.1 °F 79% 30.09 in 10.0 mi WSW 4.6 mph - N/A   Clear
6:54 AM 39.9 °F 36.7 °F 34.0 °F 79% 30.12 in 10.0 mi WSW 4.6 mph - N/A   Clear
7:54 AM 43.0 °F 41.3 °F 36.0 °F 76% 30.13 in 10.0 mi SW 3.5 mph - N/A   Clear
8:54 AM 50.0 °F - 39.0 °F 66% 30.15 in 10.0 mi SSW 5.8 mph - N/A   Clear
9:54 AM 55.9 °F - 36.0 °F 47% 30.16 in 10.0 mi SSW 10.4 mph - N/A   Clear
10:54 AM 61.0 °F - 35.1 °F 38% 30.15 in 10.0 mi SSW 13.8 mph - N/A   Clear
11:54 AM 64.0 °F - 35.1 °F 34% 30.15 in 10.0 mi SSW 15.0 mph - N/A   Clear
12:54 PM 66.0 °F - 34.0 °F 30% 30.14 in 10.0 mi SSW 18.4 mph 23.0 mph N/A   Clear
1:54 PM 68.0 °F - 32.0 °F 26% 30.10 in 10.0 mi SSW 17.3 mph 28.8 mph N/A   Clear
2:54 PM 68.0 °F - 32.0 °F 26% 30.08 in 10.0 mi SSW 18.4 mph 26.5 mph N/A   Clear
3:54 PM 68.0 °F - 32.0 °F 26% 30.08 in 10.0 mi South 15.0 mph 20.7 mph N/A   Clear
4:54 PM 66.0 °F - 34.0 °F 30% 30.08 in 10.0 mi South 11.5 mph - N/A   Clear
5:54 PM 63.0 °F - 35.1 °F 35% 30.09 in 10.0 mi South 9.2 mph - N/A   Clear
6:54 PM 60.1 °F - 36.0 °F 41% 30.11 in 10.0 mi South 6.9 mph - N/A   Clear
7:54 PM 60.1 °F - 36.0 °F 41% 30.11 in 10.0 mi SSW 9.2 mph - N/A   Clear
8:54 PM 57.9 °F - 36.0 °F 44% 30.11 in 10.0 mi South 11.5 mph - N/A   Clear
9:54 PM 57.9 °F - 35.1 °F 42% 30.12 in 10.0 mi South 9.2 mph - N/A   Clear
10:54 PM 57.9 °F - 35.1 °F 42% 30.14 in 10.0 mi SSW 10.4 mph - N/A   Clear
11:54 PM 51.1 °F - 37.0 °F 59% 30.16 in 10.0 mi South 3.5 mph - N/A   Mostly Cloudy